Location: Unspecified
(42.9300°N, 71.1866°W)
Time: 06:15:55
(UTC-04:00)

Cosmos 1674 - Visible Passes

Search period start: 30 May 2015 00:00
Search period end: 09 June 2015 00:00
Orbit: 507 x 532 km, 82.5° (Epoch: 29 May)

Date Brightness Start Highest point End Pass type
(mag) Time Alt. Az. Time Alt. Az. Time Alt. Az.
30 May 4.9 00:25:40 18° ENE 00:25:40 18° ENE 00:27:42 10° NE visible
30 May 4.0 02:00:45 30° WNW 02:00:45 30° WNW 02:04:00 10° NNW visible
31 May 5.1 00:11:53 15° ENE 00:11:53 15° ENE 00:13:35 10° NE visible
31 May 3.9 01:46:58 35° WNW 01:46:58 35° WNW 01:50:16 10° N visible
31 May 5.2 23:58:06 13° ENE 23:58:06 13° ENE 23:59:23 10° NE visible
01 Jun 3.7 01:33:11 40° WNW 01:33:11 40° WNW 01:36:30 10° N visible
01 Jun 5.3 23:44:18 11° ENE 23:44:18 11° ENE 23:45:01 10° ENE visible
02 Jun 3.5 01:19:22 46° NW 01:19:22 46° NW 01:22:42 10° N visible
03 Jun 3.3 01:05:33 53° NW 01:05:33 53° NW 01:08:54 10° N visible
04 Jun 3.2 00:51:43 59° NNW 00:51:43 59° NNW 00:55:04 10° N visible
05 Jun 3.1 00:37:52 63° N 00:37:52 63° N 00:41:13 10° N visible
06 Jun 3.1 00:24:00 63° NNE 00:24:00 63° NNE 00:27:21 10° N visible
07 Jun 3.1 00:10:07 59° NE 00:10:07 59° NE 00:13:28 10° NNE visible
07 Jun 3.2 23:56:13 52° ENE 23:56:13 52° ENE 23:59:33 10° NNE visible
08 Jun 5.4 01:31:18 11° WNW 01:32:00 11° WNW 01:32:56 10° NW visible
08 Jun 3.4 23:42:18 45° ENE 23:42:18 45° ENE 23:45:37 10° NNE visible
